Hourly Weather Lucjanow

Today, 17 June, Thursday

Time Temperature Precipitation Wind Pressure Humidity
00:00 +16°C° 0 mm 2 mps 749 mmHg 92%
01:00 +16°C° 0 mm 2 mps 749 mmHg 92%
02:00 +16°C° 0 mm 2 mps 749 mmHg 92%
03:00 +15°C° 0 mm 1 mps 749 mmHg 91%
04:00 +15°C° 0 mm 1 mps 749 mmHg 91%
05:00 +17°C° 0 mm 2 mps 749 mmHg 86%
06:00 +19°C° 0 mm 2 mps 749 mmHg 80%
07:00 +20°C° 0 mm 3 mps 750 mmHg 75%
08:00 +21°C° 0 mm 3 mps 750 mmHg 68%
09:00 +24°C° 0 mm 3 mps 750 mmHg 62%
10:00 +25°C° 0 mm 3 mps 750 mmHg 55%
11:00 +26°C° 0 mm 3 mps 750 mmHg 51%
12:00 +26°C° 0 mm 3 mps 750 mmHg 48%
13:00 +27°C° 0 mm 3 mps 750 mmHg 44%
14:00 +27°C° 0 mm 3 mps 750 mmHg 45%
15:00 +26°C° 0 mm 4 mps 750 mmHg 46%
16:00 +26°C° 0 mm 4 mps 750 mmHg 47%
17:00 +25°C° 0 mm 3 mps 750 mmHg 56%
18:00 +22°C° 0 mm 3 mps 750 mmHg 64%
19:00 +20°C° 0 mm 3 mps 750 mmHg 72%
20:00 +19°C° 0 mm 3 mps 750 mmHg 74%
21:00 +18°C° 0 mm 2 mps 750 mmHg 76%
22:00 +17°C° 0 mm 2 mps 750 mmHg 78%
23:00 +17°C° 0 mm 2 mps 750 mmHg 81%

Tomorrow, 18 June, Friday

Time Temperature Precipitation Wind Pressure Humidity
00:00 +17°C° 0 mm 2 mps 750 mmHg 84%
01:00 +16°C° 0 mm 2 mps 750 mmHg 87%
02:00 +16°C° 0 mm 2 mps 750 mmHg 88%
03:00 +16°C° 0 mm 2 mps 750 mmHg 89%
04:00 +16°C° 0 mm 2 mps 750 mmHg 90%
05:00 +18°C° 0 mm 3 mps 750 mmHg 84%
06:00 +20°C° 0 mm 3 mps 750 mmHg 77%
07:00 +22°C° 0 mm 4 mps 750 mmHg 71%
08:00 +23°C° 0 mm 4 mps 750 mmHg 66%
09:00 +26°C° 0 mm 5 mps 750 mmHg 61%
10:00 +27°C° 0 mm 5 mps 750 mmHg 56%
11:00 +28°C° 0 mm 5 mps 750 mmHg 54%
12:00 +28°C° 0 mm 5 mps 749 mmHg 52%
13:00 +29°C° 0 mm 5 mps 749 mmHg 51%
14:00 +28°C° 0 mm 5 mps 749 mmHg 52%
15:00 +28°C° 0 mm 5 mps 749 mmHg 54%
16:00 +28°C° 0 mm 5 mps 748 mmHg 56%
17:00 +27°C° 0 mm 4 mps 748 mmHg 63%
18:00 +25°C° 0 mm 4 mps 748 mmHg 69%
19:00 +23°C° 0 mm 4 mps 748 mmHg 76%
20:00 +21°C° 0 mm 3 mps 748 mmHg 80%
21:00 +20°C° 0 mm 3 mps 749 mmHg 85%
22:00 +19°C° 0 mm 3 mps 749 mmHg 89%
23:00 +18°C° 0 mm 3 mps 748 mmHg 91%

Day after tomorrow, 19 June, Saturday

Time Temperature Precipitation Wind Pressure Humidity
00:00 +18°C° 0 mm 3 mps 748 mmHg 92%
01:00 +18°C° 0 mm 3 mps 748 mmHg 94%
02:00 +18°C° 0 mm 2 mps 748 mmHg 95%
03:00 +18°C° 0 mm 2 mps 748 mmHg 95%
04:00 +18°C° 0 mm 2 mps 748 mmHg 96%
05:00 +19°C° 0 mm 3 mps 748 mmHg 89%
06:00 +21°C° 0 mm 4 mps 748 mmHg 83%
07:00 +23°C° 0 mm 4 mps 748 mmHg 76%
08:00 +25°C° 0 mm 4 mps 748 mmHg 70%
09:00 +26°C° 0 mm 5 mps 748 mmHg 64%
10:00 +27°C° 0 mm 5 mps 748 mmHg 57%
11:00 +28°C° 0 mm 5 mps 748 mmHg 56%
12:00 +29°C° 0 mm 5 mps 748 mmHg 54%
13:00 +29°C° 0 mm 5 mps 747 mmHg 52%
14:00 +29°C° 0 mm 5 mps 747 mmHg 54%
15:00 +29°C° 0 mm 5 mps 747 mmHg 56%
16:00 +28°C° 0 mm 5 mps 747 mmHg 58%
17:00 +27°C° 0 mm 5 mps 747 mmHg 64%
18:00 +26°C° 0 mm 4 mps 747 mmHg 71%
19:00 +24°C° 0 mm 3 mps 747 mmHg 77%
20:00 +22°C° 0 mm 3 mps 747 mmHg 82%
21:00 +21°C° 0 mm 3 mps 747 mmHg 86%
22:00 +19°C° 0 mm 3 mps 747 mmHg 91%
23:00 +19°C° 0 mm 3 mps 747 mmHg 92%

20 June, Sunday

Time Temperature Precipitation Wind Pressure Humidity
00:00 +18°C° 0 mm 2 mps 747 mmHg 93%
01:00 +18°C° 0 mm 2 mps 747 mmHg 94%
02:00 +18°C° 0 mm 2 mps 747 mmHg 94%
03:00 +17°C° 0 mm 2 mps 747 mmHg 95%
04:00 +17°C° 0 mm 2 mps 746 mmHg 96%
05:00 +19°C° 0 mm 3 mps 746 mmHg 89%
06:00 +21°C° 0 mm 3 mps 747 mmHg 82%
07:00 +22°C° 0 mm 4 mps 747 mmHg 75%
08:00 +25°C° 0 mm 4 mps 746 mmHg 70%
09:00 +26°C° 0 mm 4 mps 746 mmHg 64%
10:00 +27°C° 0 mm 5 mps 746 mmHg 58%
11:00 +28°C° 0 mm 5 mps 746 mmHg 56%
12:00 +28°C° 0 mm 5 mps 745 mmHg 53%
13:00 +29°C° 0 mm 5 mps 745 mmHg 50%
14:00 +29°C° 0 mm 5 mps 745 mmHg 51%
15:00 +29°C° 0 mm 5 mps 744 mmHg 52%
16:00 +29°C° 0 mm 5 mps 744 mmHg 53%
17:00 +28°C° 0 mm 4 mps 744 mmHg 60%
18:00 +26°C° 0 mm 4 mps 744 mmHg 67%
19:00 +25°C° 0 mm 4 mps 744 mmHg 74%
20:00 +23°C° 0 mm 4 mps 744 mmHg 79%
21:00 +22°C° 0 mm 4 mps 744 mmHg 84%
22:00 +21°C° 0 mm 4 mps 744 mmHg 89%
23:00 +20°C° 0 mm 3 mps 743 mmHg 91%

21 June, Monday

Time Temperature Precipitation Wind Pressure Humidity
00:00 +19°C° 0 mm 3 mps 743 mmHg 93%
01:00 +19°C° 0 mm 3 mps 743 mmHg 95%
02:00 +19°C° 0 mm 3 mps 743 mmHg 95%
03:00 +18°C° 0 mm 3 mps 743 mmHg 95%
04:00 +18°C° 0 mm 3 mps 743 mmHg 95%
05:00 +20°C° 0 mm 3 mps 743 mmHg 87%
06:00 +22°C° 0 mm 4 mps 743 mmHg 80%
07:00 +23°C° 0 mm 5 mps 743 mmHg 72%
08:00 +25°C° 0 mm 5 mps 743 mmHg 66%
09:00 +27°C° 0 mm 5 mps 743 mmHg 61%
10:00 +28°C° 0 mm 5 mps 743 mmHg 55%
11:00 +28°C° 0 mm 5 mps 743 mmHg 55%
12:00 +28°C° 0 mm 5 mps 742 mmHg 55%
13:00 +29°C° 0 mm 5 mps 742 mmHg 55%
14:00 +29°C° 0 mm 5 mps 742 mmHg 56%
15:00 +29°C° 0 mm 5 mps 742 mmHg 57%
16:00 +29°C° 0 mm 5 mps 742 mmHg 58%
17:00 +27°C° 0.1 mm 4 mps 741 mmHg 65%
18:00 +26°C° 0.1 mm 4 mps 741 mmHg 71%
19:00 +25°C° 0.1 mm 4 mps 741 mmHg 78%
20:00 +24°C° 0 mm 3 mps 741 mmHg 82%
21:00 +21°C° 0 mm 3 mps 741 mmHg 86%
22:00 +20°C° 0 mm 3 mps 741 mmHg 91%
23:00 +20°C° 0 mm 3 mps 741 mmHg 92%

22 June, Tuesday

Time Temperature Precipitation Wind Pressure Humidity
00:00 +19°C° 0 mm 3 mps 740 mmHg 93%
01:00 +19°C° 0 mm 3 mps 740 mmHg 94%
02:00 +19°C° 0 mm 3 mps 740 mmHg 94%
03:00 +19°C° 0 mm 3 mps 740 mmHg 94%
04:00 +19°C° 0 mm 3 mps 740 mmHg 95%
05:00 +21°C° 0 mm 3 mps 740 mmHg 87%
06:00 +23°C° 0 mm 4 mps 740 mmHg 79%
07:00 +26°C° 0 mm 4 mps 740 mmHg 71%
08:00 +27°C° 0 mm 4 mps 740 mmHg 65%
09:00 +29°C° 0 mm 4 mps 741 mmHg 59%
10:00 +30°C° 0 mm 4 mps 741 mmHg 54%
11:00 +32°C° 0 mm 4 mps 741 mmHg 52%
12:00 +32°C° 0 mm 5 mps 741 mmHg 50%
13:00 +33°C° 0 mm 5 mps 741 mmHg 48%
14:00 +32°C° 0.2 mm 4 mps 741 mmHg 53%
15:00 +30°C° 0.2 mm 4 mps 741 mmHg 57%
16:00 +29°C° 0.2 mm 4 mps 742 mmHg 62%
17:00 +27°C° 1.6 mm 4 mps 742 mmHg 71%
18:00 +25°C° 1.6 mm 3 mps 742 mmHg 81%
19:00 +22°C° 1.6 mm 3 mps 742 mmHg 90%
20:00 +21°C° 0.5 mm 3 mps 743 mmHg 92%
21:00 +20°C° 0.5 mm 2 mps 743 mmHg 93%
22:00 +20°C° 0.5 mm 2 mps 743 mmHg 95%
23:00 +19°C° 0 mm 2 mps 743 mmHg 95%
Show more

We Need Your Consent

Meteoprog and our Service Providers may store and access personal data such as cookies, device identifiers or other similar technologies on your device and process such data to personalise content and ads, as well as provide social media features and to analyse the traffic.

  • Store and/or access information on your device

    Cookies, device identifiers or other information can be stored or accessed on your device for the purposes indicated above.

  • Personalised ads and content, ad and content measurement, audience insights, and products development

    Ads and content can be personalised based on a profile. More data can be added to better personalise ads and content. Ad and content performance can be measured. Insights about the audience who saw the ads and content can be derived. Such data can be used to develop or improve user’s experience, systems and software.

By clicking ‘I Agree’ you will allow the use of indicated cookies, device identifiers, web beacons or other similar technologies. Your settings can be changed in the browser on your device.

For certain purposes, legitimate interests may be relied on, rather than consent. You can read more about this in our Privacy and Cookie Policy.